Location: *
(38.4303°S, 157.0822°W)
Time: 15:21:53
(UTC+00:00)

Cosmos 1934 Rocket - Pass Details

Date: 21 May 2024
Orbit: 938 x 998 km, 83.0° (Epoch: 22 June)

Event Time Altitude Azimuth Distance (km) Brightness Sun altitude
Rises 16:01:26 0° 195° (SSW) 3,637 6.7 -17.0°
Reaches altitude 10° 16:04:03 10° 201° (SSW) 2,683 6.0 -16.5°
Maximum altitude 16:09:43 42° 269° (W) 1,335 4.3 -15.4°
Drops below altitude 10° 16:15:22 10° 338° (NNW) 2,659 6.2 -14.3°
Sets 16:17:58 0° 344° (NNW) 3,601 7.0 -13.8°
